| time (UTC) | temp F | wind direction | speed MPH | gust MPH | rain 1hr in | rain 24hr in | rain mn in | humidity % | barometer mb |
| 20260510072005 | 46 | 212 | 0.0 | 0.0 | 0.00 | 0.11 | 0.00 | 81 | 1008.8 |
| 20260510071005 | 46 | 221 | 0.0 | 0.0 | 0.00 | 0.11 | 0.00 | 81 | 1008.8 |
| 20260510070006 | 45 | 223 | 0.0 | 0.0 | 0.00 | 0.11 | 0.00 | 82 | 1008.9 |
| 20260510065005 | 45 | 223 | 0.0 | 0.0 | 0.00 | 0.11 | 0.00 | 81 | 1008.9 |
| 20260510064005 | 45 | 222 | 0.0 | 0.0 | 0.00 | 0.11 | 0.00 | 83 | 1008.8 |
| 20260510063006 | 45 | 213 | 0.0 | 0.0 | 0.00 | 0.11 | 0.00 | 83 | 1009.0 |
| 20260510062005 | 44 | 199 | 0.0 | 0.0 | 0.00 | 0.11 | 0.00 | 82 | 1009.0 |
| 20260510061005 | 44 | 258 | 0.0 | 0.0 | 0.00 | 0.11 | 0.00 | 84 | 1008.9 |
| 20260510060006 | 44 | 203 | 0.0 | 0.0 | 0.00 | 0.11 | 0.00 | 85 | 1008.8 |
| 20260510055005 | 43 | 203 | 0.0 | 0.0 | 0.00 | 0.11 | 0.00 | 87 | 1008.8 |
| 20260510054005 | 43 | 203 | 0.0 | 0.0 | 0.00 | 0.11 | 0.00 | 89 | 1009.0 |
| 20260510053005 | 43 | 203 | 0.0 | 0.0 | 0.00 | 0.11 | 0.00 | 88 | 1009.2 |
| 20260510052006 | 43 | 203 | 0.0 | 0.0 | 0.00 | 0.11 | 0.00 | 88 | 1009.2 |
| 20260510051006 | 43 | 203 | 0.0 | 0.0 | 0.00 | 0.11 | 0.00 | 88 | 1009.0 |
| 20260510050005 | 42 | 203 | 0.0 | 0.0 | 0.00 | 0.11 | 0.00 | 89 | 1009.0 |
| 20260510045005 | 42 | 103 | 0.0 | 0.0 | 0.00 | 0.11 | 0.00 | 91 | 1009.2 |
| 20260510044005 | 41 | 99 | 0.0 | 0.0 | 0.00 | 0.11 | 0.00 | 92 | 1009.3 |
| 20260510042005 | 41 | 99 | 0.0 | 0.0 | 0.00 | 0.11 | 0.00 | 91 | 1009.6 |
| 20260510035005 | 41 | 99 | 0.0 | 0.0 | 0.00 | 0.11 | 0.00 | 92 | 1009.6 |
| 20260510034005 | 40 | 99 | 0.0 | 0.0 | 0.00 | 0.11 | 0.00 | 91 | 1009.7 |
| 20260510033005 | 40 | 99 | 0.0 | 0.0 | 0.00 | 0.11 | 0.00 | 92 | 1009.8 |
| 20260510032006 | 40 | 99 | 0.0 | 0.0 | 0.00 | 0.11 | 0.00 | 92 | 1009.8 |
| 20260510031005 | 40 | 97 | 0.0 | 0.0 | 0.00 | 0.11 | 0.00 | 92 | 1009.9 |
| 20260510030005 | 40 | 194 | 0.0 | 0.0 | 0.00 | 0.11 | 0.00 | 92 | 1010.0 |
| 20260510025005 | 40 | 30 | 0.0 | 0.0 | 0.00 | 0.11 | 0.00 | 92 | 1010.1 |
| 20260510024005 | 39 | 344 | 0.0 | 0.0 | 0.00 | 0.11 | 0.00 | 92 | 1010.2 |
| 20260510023005 | 40 | 12 | 0.0 | 0.0 | 0.00 | 0.11 | 0.00 | 92 | 1010.3 |
| 20260510022005 | 39 | 348 | 0.0 | 0.0 | 0.00 | 0.11 | 0.00 | 92 | 1010.5 |
| 20260510021005 | 39 | 146 | 0.0 | 0.0 | 0.00 | 0.11 | 0.00 | 92 | 1010.7 |
| 20260510015006 | 39 | 148 | 0.0 | 0.0 | 0.00 | 0.11 | 0.00 | 92 | 1011.3 |
| 20260510014006 | 39 | 146 | 0.0 | 0.0 | 0.00 | 0.11 | 0.00 | 92 | 1011.5 |
| 20260510012005 | 40 | 145 | 0.0 | 0.0 | 0.00 | 0.11 | 0.00 | 91 | 1011.8 |
| 20260510011005 | 40 | 311 | 0.0 | 0.0 | 0.00 | 0.11 | 0.00 | 91 | 1011.9 |
| 20260510010005 | 40 | 307 | 0.0 | 0.0 | 0.00 | 0.11 | 0.00 | 91 | 1011.9 |
| 20260510005005 | 40 | 305 | 0.0 | 0.0 | 0.00 | 0.11 | 0.00 | 91 | 1012.1 |
| 20260510004005 | 40 | 304 | 0.0 | 0.0 | 0.00 | 0.11 | 0.00 | 91 | 1012.1 |
| 20260510003005 | 40 | 304 | 0.0 | 0.0 | 0.00 | 0.11 | 0.00 | 91 | 1012.3 |
| 20260510002005 | 40 | 302 | 0.0 | 0.0 | 0.00 | 0.11 | 0.00 | 91 | 1012.4 |
| 20260510001005 | 40 | 303 | 0.0 | 0.0 | 0.00 | 0.11 | 0.00 | 91 | 1012.5 |
| 20260510000005 | 40 | 303 | 0.0 | 0.0 | 0.00 | 0.11 | 0.00 | 91 | 1012.7 |
| 20260509235005 | 40 | 303 | 0.0 | 0.0 | 0.00 | 0.11 | 0.00 | 92 | 1012.7 |
| 20260509234005 | 40 | 303 | 0.0 | 0.0 | 0.00 | 0.11 | 0.00 | 91 | 1012.8 |
| 20260509233005 | 40 | 302 | 0.0 | 0.0 | 0.00 | 0.11 | 0.00 | 91 | 1013.1 |
| 20260509232005 | 40 | 302 | 0.0 | 0.0 | 0.00 | 0.11 | 0.00 | 91 | 1013.2 |
| 20260509231005 | 40 | 302 | 0.0 | 0.0 | 0.00 | 0.11 | 0.00 | 91 | 1013.1 |
| 20260509230005 | 40 | 300 | 0.0 | 0.0 | 0.00 | 0.11 | 0.00 | 91 | 1013.4 |
| 20260509223005 | 41 | 295 | 0.0 | 0.0 | 0.00 | 0.11 | 0.00 | 91 | 1013.8 |
| 20260509222006 | 41 | 295 | 0.0 | 0.0 | 0.00 | 0.11 | 0.00 | 91 | 1013.9 |
| 20260509220005 | 41 | 294 | 0.0 | 0.0 | 0.00 | 0.11 | 0.00 | 92 | 1014.2 |
| 20260509215005 | 40 | 294 | 0.0 | 0.0 | 0.00 | 0.11 | 0.11 | 92 | 1014.3 |
| 20260509214005 | 40 | 294 | 0.0 | 0.0 | 0.00 | 0.11 | 0.11 | 92 | 1014.4 |
| 20260509213005 | 40 | 294 | 0.0 | 0.0 | 0.00 | 0.11 | 0.11 | 92 | 1014.4 |
| 20260509212005 | 40 | 293 | 0.0 | 0.0 | 0.00 | 0.11 | 0.11 | 91 | 1014.5 |
| 20260509211005 | 40 | 292 | 0.0 | 0.0 | 0.00 | 0.11 | 0.11 | 91 | 1014.6 |
| 20260509210005 | 41 | 290 | 0.0 | 0.0 | 0.01 | 0.11 | 0.11 | 91 | 1014.7 |
| 20260509202004 | 41 | 290 | 0.0 | 0.0 | 0.01 | 0.11 | 0.11 | 92 | 1015.1 |
| 20260509201005 | 41 | 290 | 0.0 | 0.0 | 0.01 | 0.11 | 0.11 | 92 | 1015.0 |
| 20260509200005 | 41 | 290 | 0.0 | 0.0 | 0.00 | 0.10 | 0.10 | 92 | 1015.1 |
| 20260509193005 | 41 | 289 | 0.0 | 0.0 | 0.01 | 0.10 | 0.10 | 91 | 1015.2 |
| 20260509192004 | 41 | 289 | 0.0 | 0.0 | 0.02 | 0.10 | 0.10 | 91 | 1015.1 |
| 20260509191004 | 41 | 285 | 0.0 | 0.0 | 0.03 | 0.10 | 0.10 | 91 | 1015.1 |
| 20260509190005 | 41 | 17 | 0.0 | 0.0 | 0.03 | 0.10 | 0.10 | 91 | 1014.9 |
| 20260509185005 | 41 | 254 | 0.0 | 0.0 | 0.06 | 0.10 | 0.10 | 91 | 1014.7 |
| 20260509184005 | 41 | 203 | 0.0 | 0.0 | 0.06 | 0.09 | 0.09 | 90 | 1014.6 |
| 20260509182004 | 43 | 192 | 0.0 | 0.0 | 0.07 | 0.08 | 0.08 | 87 | 1014.2 |
| 20260509181005 | 45 | 285 | 0.0 | 0.0 | 0.06 | 0.07 | 0.07 | 84 | 1014.1 |
| 20260509180005 | 47 | 263 | 0.0 | 0.0 | 0.07 | 0.07 | 0.07 | 88 | 1014.1 |
| 20260509174005 | 47 | 335 | 0.0 | 0.0 | 0.03 | 0.03 | 0.03 | 86 | 1013.9 |
| 20260509173005 | 47 | 333 | 0.0 | 0.0 | 0.02 | 0.02 | 0.02 | 86 | 1013.9 |
| 20260509172005 | 48 | 336 | 0.0 | 0.0 | 0.01 | 0.01 | 0.01 | 85 | 1013.9 |
| 20260509170005 | 48 | 104 | 0.0 | 0.0 | 0.00 | 0.00 | 0.00 | 85 | 1014.0 |
| 20260509165006 | 48 | 104 | 0.0 | 0.0 | 0.00 | 0.00 | 0.00 | 85 | 1014.2 |
| 20260509163006 | 49 | 104 | 0.0 | 0.0 | 0.00 | 0.00 | 0.00 | 83 | 1014.4 |
| 20260509162006 | 49 | 104 | 0.0 | 0.0 | 0.00 | 0.00 | 0.00 | 82 | 1014.5 |
| 20260509161006 | 49 | 104 | 0.0 | 0.0 | 0.00 | 0.00 | 0.00 | 81 | 1014.7 |
| 20260509160006 | 49 | 104 | 0.0 | 0.0 | 0.00 | 0.00 | 0.00 | 81 | 1014.8 |
| 20260509155005 | 49 | 96 | 0.0 | 0.0 | 0.00 | 0.00 | 0.00 | 80 | 1014.9 |
| 20260509154006 | 49 | 89 | 0.0 | 0.0 | 0.00 | 0.00 | 0.00 | 80 | 1015.0 |
| 20260509152006 | 49 | 87 | 0.0 | 0.0 | 0.00 | 0.00 | 0.00 | 79 | 1015.2 |
| 20260509151006 | 49 | 96 | 0.0 | 0.0 | 0.00 | 0.00 | 0.00 | 77 | 1015.4 |
| 20260509150005 | 49 | 111 | 0.0 | 0.0 | 0.00 | 0.00 | 0.00 | 78 | 1015.5 |
| 20260509145005 | 50 | 77 | 0.0 | 0.0 | 0.00 | 0.00 | 0.00 | 76 | 1015.8 |
| 20260509144005 | 50 | 131 | 0.0 | 0.0 | 0.00 | 0.00 | 0.00 | 77 | 1015.9 |
| 20260509141006 | 49 | 218 | 0.0 | 0.0 | 0.00 | 0.00 | 0.00 | 79 | 1016.2 |
| 20260509135005 | 49 | 100 | 0.0 | 0.0 | 0.00 | 0.00 | 0.00 | 80 | 1016.5 |
| 20260509134005 | 49 | 100 | 0.0 | 0.0 | 0.00 | 0.00 | 0.00 | 81 | 1016.5 |
| 20260509133006 | 49 | 231 | 0.0 | 0.0 | 0.00 | 0.00 | 0.00 | 82 | 1016.8 |
| 20260509131005 | 48 | 95 | 0.0 | 0.0 | 0.00 | 0.00 | 0.00 | 80 | 1016.9 |
| 20260509130005 | 49 | 102 | 0.0 | 0.0 | 0.00 | 0.00 | 0.00 | 79 | 1017.1 |
| 20260509123005 | 49 | 274 | 0.0 | 0.0 | 0.00 | 0.00 | 0.00 | 79 | 1017.3 |
| 20260509122005 | 49 | 274 | 0.0 | 0.0 | 0.00 | 0.00 | 0.00 | 79 | 1017.4 |
| 20260509121005 | 50 | 274 | 0.0 | 0.0 | 0.00 | 0.00 | 0.00 | 75 | 1017.5 |
| 20260509120005 | 51 | 275 | 0.0 | 0.0 | 0.00 | 0.00 | 0.00 | 73 | 1017.5 |
| 20260509115006 | 51 | 274 | 0.0 | 0.0 | 0.00 | 0.00 | 0.00 | 73 | 1017.6 |
| 20260509114005 | 51 | 275 | 0.0 | 0.0 | 0.00 | 0.00 | 0.00 | 73 | 1017.6 |
| 20260509112005 | 51 | 303 | 0.0 | 0.0 | 0.00 | 0.00 | 0.00 | 70 | 1017.6 |
| 20260509111006 | 51 | 255 | 0.0 | 0.0 | 0.00 | 0.00 | 0.00 | 73 | 1017.6 |
| 20260509110005 | 51 | 257 | 0.0 | 0.0 | 0.00 | 0.00 | 0.00 | 70 | 1017.6 |
| 20260509105005 | 51 | 273 | 0.0 | 0.0 | 0.00 | 0.00 | 0.00 | 68 | 1017.6 |
| 20260509104005 | 51 | 222 | 0.0 | 0.0 | 0.00 | 0.00 | 0.00 | 69 | 1017.5 |
| 20260509103006 | 50 | 221 | 0.0 | 0.0 | 0.00 | 0.00 | 0.00 | 69 | 1017.4 |
| 20260509102006 | 50 | 223 | 0.0 | 0.0 | 0.00 | 0.00 | 0.00 | 70 | 1017.4 |
| 20260509101005 | 50 | 188 | 0.0 | 0.0 | 0.00 | 0.00 | 0.00 | 69 | 1017.4 |
| 20260509100006 | 50 | 193 | 0.0 | 0.0 | 0.00 | 0.00 | 0.00 | 67 | 1017.3 |
| 20260509095006 | 49 | 149 | 0.0 | 0.0 | 0.00 | 0.00 | 0.00 | 67 | 1017.2 |
| 20260509094006 | 49 | 330 | 0.0 | 0.0 | 0.00 | 0.00 | 0.00 | 64 | 1017.3 |
| 20260509093005 | 49 | 343 | 0.0 | 0.0 | 0.00 | 0.00 | 0.00 | 64 | 1017.3 |
| 20260509092006 | 49 | 343 | 0.0 | 0.0 | 0.00 | 0.00 | 0.00 | 66 | 1017.4 |
| 20260509091005 | 49 | 343 | 0.0 | 0.0 | 0.00 | 0.00 | 0.00 | 68 | 1017.4 |
| 20260509090006 | 49 | 343 | 0.0 | 0.0 | 0.00 | 0.00 | 0.00 | 68 | 1017.4 |
| 20260509085005 | 49 | 343 | 0.0 | 0.0 | 0.00 | 0.00 | 0.00 | 65 | 1017.3 |
| 20260509084005 | 49 | 343 | 0.0 | 0.0 | 0.00 | 0.00 | 0.00 | 65 | 1017.3 |
| 20260509083006 | 48 | 344 | 0.0 | 0.0 | 0.00 | 0.00 | 0.00 | 66 | 1017.3 |
| 20260509082005 | 47 | 343 | 0.0 | 0.0 | 0.00 | 0.00 | 0.00 | 66 | 1017.3 |
| 20260509081006 | 47 | 343 | 0.0 | 0.0 | 0.00 | 0.00 | 0.00 | 66 | 1017.3 |
| 20260509080005 | 47 | 343 | 0.0 | 0.0 | 0.00 | 0.00 | 0.00 | 68 | 1017.3 |
| 20260509074005 | 47 | 343 | 0.0 | 0.0 | 0.00 | 0.00 | 0.00 | 70 | 1017.4 |